Weather History for Chamberlain, SD

Change the Weather History Date:

Monday, February 18, 2013

  Actual Average Record
Temperature  
Mean Temperature 24 °F -  
Max Temperature 37 °F 35 °F 57 °F (2004)
Min Temperature 10 °F 16 °F -13 °F (2006)
Degree Days  
Heating Degree Days 40    
Moisture  
Dew Point 16 °F    
Average Humidity 67    
Maximum Humidity 76    
Minimum Humidity 57    
Precipitation  
Precipitation 0.00 in - - ()
Sea Level Pressure  
Sea Level Pressure 29.96 in    
Wind  
Wind Speed 19 mph (NNW)    
Max Wind Speed 25 mph    
Max Gust Speed 38 mph    
Averages and records for this station are not official NWS values.
T = Trace of Precipitation, MM = Missing Value Source: NWS Daily Summary

Daily Weather History Graph

Daily Weather History Graph

Search for Another Location

Airport:

Trip Planner

Search our weather history database for the weather conditions in past years. The results will help you decide how hot, cold, wet, or windy it might be!

Date:

Astronomy

Feb. 18, 2013 Rise Set
Actual Time 7:31 AM CST 6:11 PM CST
Civil Twilight 7:01 AM CST 6:41 PM CST
Nautical Twilight 6:28 AM CST 7:14 PM CST
Astronomical Twilight 5:55 AM CST 7:47 PM CST
Moon 11:53 AM CST (2/18) 2:17 AM CST (2/18)
Length of Visible Light 11h 39m
Length of Day
10h 40m
First Quarter, 58% of the Moon is Illuminated
Feb 18
First Quarter
Feb 25
Full
Mar 4
Last Quarter
Mar 11
New
Mar 19
First Quarter

Hourly Weather History & Observations

Time (CST) Temp. Windchill Dew Point Humidity Pressure Visibility Wind Dir Wind Speed Gust Speed Precip Events Conditions
12:52 AM 37.0 °F 28.9 °F 28.9 °F 73% 29.70 in - WNW 12.7 mph - N/A   Unknown
1:52 AM 36.0 °F 26.7 °F 28.9 °F 76% 29.70 in - WNW 15.0 mph - N/A   Unknown
2:52 AM 36.0 °F 26.3 °F 28.0 °F 73% 29.71 in - WNW 16.1 mph - N/A   Unknown
3:52 AM 35.1 °F 25.2 °F 28.0 °F 76% 29.73 in - WNW 16.1 mph - N/A   Unknown
4:52 AM 34.0 °F 21.5 °F 25.0 °F 70% 29.74 in - NW 24.2 mph 34.5 mph N/A   Unknown
5:52 AM 30.0 °F 16.6 °F 21.9 °F 72% 29.81 in - North 23.0 mph 31.1 mph N/A   Unknown
6:52 AM 28.0 °F 13.6 °F 19.0 °F 69% 29.84 in - NW 24.2 mph 35.7 mph N/A   Unknown
7:52 AM 26.1 °F 12.3 °F 18.0 °F 71% 29.88 in - NW 19.6 mph 32.2 mph N/A   Unknown
8:52 AM 25.0 °F 9.9 °F 16.0 °F 69% 29.91 in - NNW 23.0 mph 35.7 mph N/A   Unknown
9:52 AM 24.1 °F 8.0 °F 10.9 °F 57% 29.95 in - NNW 25.3 mph 38.0 mph N/A   Unknown
10:52 AM 25.0 °F 10.6 °F 14.0 °F 63% 29.97 in - NNW 20.7 mph 34.5 mph N/A   Unknown
11:52 AM 24.1 °F 11.0 °F 16.0 °F 71% 29.99 in - NNW 16.1 mph 26.5 mph N/A   Unknown
12:52 PM 27.0 °F 12.2 °F 15.1 °F 61% 29.98 in - NNW 24.2 mph 34.5 mph N/A   Unknown
1:52 PM 27.0 °F 12.8 °F 16.0 °F 63% 29.99 in - NNW 21.9 mph 32.2 mph N/A   Unknown
2:52 PM 28.9 °F 15.1 °F 16.0 °F 58% 30.00 in - NW 23.0 mph 28.8 mph N/A   Unknown
3:52 PM 28.0 °F 13.9 °F 15.1 °F 58% 30.02 in - NW 23.0 mph 31.1 mph N/A   Unknown
4:52 PM 27.0 °F 12.8 °F 14.0 °F 58% 30.04 in - NNW 21.9 mph 32.2 mph N/A   Unknown
5:52 PM 26.1 °F 13.6 °F 15.1 °F 63% 30.07 in - NNW 16.1 mph 28.8 mph N/A   Unknown
6:52 PM 25.0 °F 9.9 °F 14.0 °F 63% 30.09 in - NNW 23.0 mph 33.4 mph N/A   Unknown
7:52 PM 21.9 °F 5.8 °F 12.0 °F 66% 30.13 in - North 23.0 mph 33.4 mph N/A   Unknown
8:52 PM 17.1 °F 0.6 °F 9.0 °F 71% 30.17 in - North 19.6 mph 26.5 mph N/A   Unknown
9:52 PM 15.1 °F -2.5 °F 8.1 °F 74% 30.20 in - North 20.7 mph 27.6 mph N/A   Unknown
10:52 PM 12.9 °F -6.1 °F 3.9 °F 67% 30.22 in - North 23.0 mph 29.9 mph N/A   Unknown
11:52 PM 10.9 °F -6.5 °F 3.0 °F 70% 30.26 in - NNW 17.3 mph - N/A   Unknown